WXM80 ListenWXM80 Stop

You find our weather info also at:

UK Metoffice

WeatherCloud

Weather Underground

Northeastern Weather Network

AWEKAS

Citizen Weather Observer Program (CWOP)

HAMweather, WeatherForYou, PWS Weather


Weather Underground History page Text

Daily Summary for May 25, 2017 Units:  Metric    English   Both
« Previous Day
Next Day »
Daily Weekly Monthly Yearly Custom
  High: Low: Average:
Temperature: 14.2 °C 13.2 °C 13.6 °C
Dew Point: 13.8 °C 11.6 °C 12.9 °C
Humidity: 98 % 85 % 95 %
Wind Speed: 10.5 km/h 0 km/h 4.7 km/h
Wind Gust: 20.4 km/h - -
Wind:- - East
Pressure: 1008.7 hPa 997.5 hPa -
Precipitation: 12.19 mm    
Historical Graphs
 
 
Tabular Data for May 25, 2017
Time Temperature Dew Point Pressure Wind Wind Speed Wind Gust Humidity Rainfall Rate (Hourly)
00:03 14.1 °C 11.6 °C 1008.7 hPa ENE 1.9 km/h 5.6 km/h 85 % 0 mm
00:08 14.1 °C 11.6 °C 1008.7 hPa ENE 1.6 km/h 1.9 km/h 85 % 0 mm
00:13 14.1 °C 11.6 °C 1008.7 hPa East 0.2 km/h 1.9 km/h 85 % 0 mm
00:18 14.1 °C 11.7 °C 1008.7 hPa SE 0.3 km/h 1.9 km/h 86 % 0 mm
00:23 14.1 °C 11.7 °C 1008.7 hPa SE 0.6 km/h 1.9 km/h 86 % 0 mm
00:28 14.1 °C 11.7 °C 1008.7 hPa SE 1.4 km/h 3.7 km/h 86 % 0 mm
00:33 14.1 °C 11.7 °C 1008.7 hPa SE 0.5 km/h 3.7 km/h 86 % 0 mm
00:38 14.1 °C 11.6 °C 1008.7 hPa SE 0.3 km/h 1.9 km/h 85 % 0 mm
00:43 14 °C 11.7 °C 1008.7 hPa SE 1 km/h 3.7 km/h 86 % 0 mm
00:48 14 °C 11.7 °C 1008.4 hPa SE 0.6 km/h 1.9 km/h 86 % 0 mm
00:53 13.9 °C 11.7 °C 1008.4 hPa SE 0.8 km/h 1.9 km/h 86 % 0 mm
00:58 13.9 °C 11.8 °C 1008.4 hPa SE 1.3 km/h 3.7 km/h 87 % 0 mm
01:03 13.9 °C 11.8 °C 1008.4 hPa ESE 1.3 km/h 3.7 km/h 87 % 0 mm
01:08 13.9 °C 11.8 °C 1008.4 hPa East 0.6 km/h 1.9 km/h 87 % 0 mm
01:13 13.9 °C 11.8 °C 1008.4 hPa East 0.8 km/h 3.7 km/h 87 % 0 mm
01:18 13.9 °C 11.8 °C 1008.4 hPa East 1 km/h 3.7 km/h 87 % 0 mm
01:23 13.8 °C 11.9 °C 1008 hPa East 1.8 km/h 3.7 km/h 88 % 0 mm
01:28 13.8 °C 11.9 °C 1008 hPa East 1.4 km/h 3.7 km/h 88 % 0 mm
01:33 13.8 °C 11.9 °C 1008 hPa East 0.2 km/h 1.9 km/h 88 % 0 mm
01:38 13.9 °C 11.9 °C 1008 hPa East 0.3 km/h 1.9 km/h 88 % 0 mm
01:43 13.8 °C 11.9 °C 1008 hPa East 1 km/h 1.9 km/h 88 % 0 mm
01:48 13.8 °C 11.9 °C 1008 hPa East 0.3 km/h 1.9 km/h 88 % 0 mm
01:53 13.9 °C 11.9 °C 1008 hPa East 0.2 km/h   88 % 0 mm
01:58 13.9 °C 11.9 °C 1008 hPa Calm   1.9 km/h 88 % 0 mm
02:03 13.9 °C 11.9 °C 1007.7 hPa East 0.6 km/h 3.7 km/h 88 % 0 mm
02:08 13.9 °C 11.9 °C 1007.7 hPa East 0.5 km/h 1.9 km/h 88 % 0 mm
02:13 13.9 °C 11.9 °C 1007.7 hPa East 0.3 km/h 1.9 km/h 88 % 0 mm
02:18 13.9 °C 12 °C 1007.7 hPa East 0.3 km/h 1.9 km/h 88 % 0 mm
02:23 13.9 °C 11.9 °C 1007.7 hPa East 1.3 km/h 3.7 km/h 88 % 0 mm
02:28 13.9 °C 12 °C 1007.3 hPa East 1.8 km/h 3.2 km/h 88 % 0 mm
02:33 13.9 °C 12 °C 1007.3 hPa East 0.5 km/h 1.9 km/h 88 % 0 mm
02:38 13.9 °C 12 °C 1007.3 hPa East 1.6 km/h 5.6 km/h 88 % 0 mm
02:43 14 °C 12.1 °C 1007.3 hPa East 1.4 km/h 3.7 km/h 88 % 0 mm
02:48 14 °C 12.1 °C 1007 hPa East 2.1 km/h 5.6 km/h 88 % 0 mm
02:54 14.1 °C 12.1 °C 1007 hPa East 1.9 km/h 3.7 km/h 88 % 0 mm
02:59 14.1 °C 12.1 °C 1007.3 hPa East 0.8 km/h 3.7 km/h 88 % 0 mm
03:04 14.1 °C 12.3 °C 1007 hPa ESE 3.5 km/h 5.6 km/h 89 % 0 mm
03:09 14.1 °C 12.3 °C 1007 hPa ESE 1.8 km/h 3.7 km/h 89 % 0 mm
03:14 14.1 °C 12.3 °C 1007 hPa East 2.6 km/h 3.7 km/h 89 % 0 mm
03:19 14.2 °C 12.4 °C 1007 hPa East 1.9 km/h 3.7 km/h 89 % 0 mm
03:24 14.2 °C 12.4 °C 1007 hPa ESE 1.1 km/h 5.6 km/h 89 % 0 mm
03:29 14.2 °C 12.4 °C 1007 hPa East 1.6 km/h 3.7 km/h 89 % 0 mm
03:34 14.2 °C 12.4 °C 1007 hPa East 1.4 km/h 3.7 km/h 89 % 0 mm
03:39 14.2 °C 12.4 °C 1007 hPa ESE 3.5 km/h 7.4 km/h 89 % 0 mm
03:44 14.2 °C 12.4 °C 1007 hPa ESE 3.2 km/h 5.6 km/h 89 % 0 mm
03:49 14.2 °C 12.4 °C 1006.7 hPa ENE 2.3 km/h 5.6 km/h 89 % 0 mm
03:54 14.2 °C 12.4 °C 1006.7 hPa East 2.1 km/h 3.7 km/h 89 % 0 mm
03:59 14.1 °C 12.3 °C 1006.7 hPa ESE 3.1 km/h 7.4 km/h 89 % 0 mm
04:04 14.1 °C 12.3 °C 1006.7 hPa East 2.6 km/h 3.7 km/h 89 % 0 mm
04:09 14.1 °C 12.3 °C 1006.7 hPa East 2.3 km/h 3.7 km/h 89 % 0 mm
04:15 14.1 °C 12.5 °C 1006.3 hPa ENE 1.6 km/h 4.8 km/h 90 % 0 mm
04:20 14.1 °C 12.5 °C 1006.3 hPa ENE 3.4 km/h 5.6 km/h 90 % 0 mm
04:25 14.1 °C 12.4 °C 1006.3 hPa ENE 3.1 km/h 4.8 km/h 90 % 0 mm
04:30 14 °C 12.6 °C 1006.3 hPa ENE 3.9 km/h 5.6 km/h 91 % 0 mm
04:35 13.9 °C 12.3 °C 1006.3 hPa ENE 3.5 km/h 5.6 km/h 90 % 0 mm
04:40 13.9 °C 12.4 °C 1006.3 hPa ENE 4 km/h 5.6 km/h 91 % 0 mm
04:45 13.9 °C 12.4 °C 1006.3 hPa ENE 4 km/h 6.4 km/h 91 % 0 mm
04:50 13.8 °C 12.4 °C 1006.3 hPa ENE 5.5 km/h 9.3 km/h 91 % 0 mm
04:55 13.8 °C 12.5 °C 1006 hPa ENE 5.5 km/h 7.4 km/h 92 % 0 mm
05:00 13.7 °C 12.4 °C 1006.3 hPa ENE 3.7 km/h 6.4 km/h 92 % 0 mm
05:05 13.7 °C 12.4 °C 1006.3 hPa ENE 4.7 km/h 6.4 km/h 92 % 0.25 mm
05:10 13.6 °C 12.5 °C 1006 hPa ENE 3.9 km/h 6.4 km/h 93 % 0.25 mm
05:15 13.6 °C 12.4 °C 1006.3 hPa ENE 4.2 km/h 5.6 km/h 93 % 0.25 mm
05:21 13.5 °C 12.4 °C 1006.3 hPa East 3.5 km/h 5.6 km/h 93 % 0.25 mm
05:26 13.5 °C 12.4 °C 1006.3 hPa East 3.2 km/h 5.6 km/h 93 % 0.25 mm
05:31 13.5 °C 12.6 °C 1006.3 hPa East 3.5 km/h 5.6 km/h 94 % 0.25 mm
05:36 13.5 °C 12.6 °C 1006.3 hPa East 3.5 km/h 7.4 km/h 94 % 0.25 mm
05:40 13.5 °C 12.6 °C 1006.3 hPa East 4 km/h 7.4 km/h 94 % 0.25 mm
05:51 13.4 °C 12.4 °C 1006.3 hPa ENE 3.2 km/h 8 km/h 94 % 0 mm
05:56 13.3 °C 12.4 °C 1006.3 hPa ENE 4.8 km/h 8 km/h 94 % 0 mm
06:01 13.3 °C 12.4 °C 1006 hPa East 3.5 km/h 5.6 km/h 94 % 0.51 mm
06:06 13.3 °C 12.6 °C 1006 hPa ENE 3.2 km/h 8 km/h 95 % 0 mm
06:11 13.3 °C 12.5 °C 1005.6 hPa ENE 4.8 km/h 9.7 km/h 95 % 0 mm
06:16 13.3 °C 12.5 °C 1005.6 hPa ENE 8 km/h 19.3 km/h 95 % 0 mm
06:21 13.2 °C 12.4 °C 1005.6 hPa ENE 4.8 km/h 12.9 km/h 95 % 0 mm
06:26 13.3 °C 12.5 °C 1005.6 hPa East 5.6 km/h 8 km/h 95 % 0.51 mm
06:30 13.2 °C 12.4 °C 1005.6 hPa ENE 7.1 km/h 11.3 km/h 95 % 0.51 mm
06:35 13.3 °C 12.5 °C 1005.3 hPa East 6.8 km/h 9.3 km/h 95 % 0.51 mm
06:40 13.2 °C 12.4 °C 1005.3 hPa East 8 km/h 9.3 km/h 95 % 0.51 mm
06:45 13.2 °C 12.4 °C 1005.3 hPa East 7.1 km/h 9.7 km/h 95 % 0.25 mm
06:51 13.3 °C 12.5 °C 1005.3 hPa East 4.5 km/h 8 km/h 95 % 0.25 mm
06:56 13.2 °C 12.4 °C 1005.3 hPa ENE 4.8 km/h 8 km/h 95 % 0 mm
07:01 13.3 °C 12.7 °C 1005.3 hPa ENE 5.5 km/h 9.3 km/h 96 % 0.25 mm
07:05 13.3 °C 12.7 °C 1005.3 hPa ENE 5 km/h 7.4 km/h 96 % 0.51 mm
07:10 13.3 °C 12.7 °C 1005.3 hPa East 6.3 km/h 9.3 km/h 96 % 0.51 mm
07:15 13.3 °C 12.7 °C 1005.3 hPa East 6 km/h 11.1 km/h 96 % 0.51 mm
07:20 13.3 °C 12.7 °C 1005.3 hPa East 5.3 km/h 5.6 km/h 96 % 0.25 mm
07:25 13.3 °C 12.7 °C 1005.3 hPa ENE 6.3 km/h 9.3 km/h 96 % 0.25 mm
07:30 13.3 °C 12.7 °C 1005 hPa East 6.4 km/h 13 km/h 96 % 0.25 mm
07:35 13.3 °C 12.7 °C 1005 hPa East 5.3 km/h 8 km/h 96 % 0.51 mm
07:40 13.3 °C 12.7 °C 1005 hPa East 6.8 km/h 9.3 km/h 96 % 0.51 mm
07:41 13.3 °C 12.7 °C 1005 hPa East 6.6 km/h 9.3 km/h 96 % 0.51 mm
07:46 13.4 °C 12.8 °C 1004.6 hPa East 6.4 km/h 9.3 km/h 96 % 0.76 mm
07:51 13.4 °C 12.9 °C 1005 hPa East 5.5 km/h 8 km/h 97 % 0.76 mm
07:56 13.4 °C 13 °C 1005 hPa East 5.1 km/h 7.4 km/h 97 % 0.76 mm
08:01 13.4 °C 13 °C 1005 hPa East 6.1 km/h 7.4 km/h 97 % 1.02 mm
08:06 13.4 °C 12.9 °C 1005 hPa East 6.4 km/h 9.3 km/h 97 % 0.76 mm
08:12 13.4 °C 13 °C 1005 hPa East 6 km/h 7.4 km/h 97 % 0.76 mm
08:17 13.4 °C 13 °C 1004.6 hPa East 4.5 km/h 8 km/h 97 % 1.02 mm
08:22 13.4 °C 13 °C 1004.6 hPa ENE 4.7 km/h 5.6 km/h 97 % 1.02 mm
08:27 13.4 °C 13 °C 1004.6 hPa ENE 4 km/h 6.4 km/h 97 % 1.27 mm
08:32 13.4 °C 13 °C 1004.3 hPa East 5.1 km/h 8 km/h 97 % 1.02 mm
08:37 13.5 °C 13.1 °C 1003.9 hPa ENE 6.6 km/h 11.3 km/h 97 % 1.02 mm
08:42 13.5 °C 13.1 °C 1003.9 hPa ENE 6.3 km/h 7.4 km/h 97 % 1.27 mm
08:47 13.6 °C 13.1 °C 1004.3 hPa East 5.8 km/h 9.3 km/h 97 % 1.02 mm
08:52 13.6 °C 13.1 °C 1003.9 hPa East 8 km/h 11.1 km/h 97 % 1.02 mm
08:57 13.5 °C 13.1 °C 1003.9 hPa East 6.8 km/h 9.3 km/h 97 % 1.02 mm
09:02 13.4 °C 13 °C 1003.9 hPa East 8.2 km/h 11.1 km/h 97 % 0.76 mm
09:07 13.4 °C 13 °C 1003.9 hPa ENE 6.6 km/h 9.3 km/h 97 % 0.76 mm
09:12 13.4 °C 13 °C 1004.3 hPa East 7.4 km/h 9.3 km/h 97 % 0.76 mm
09:17 13.4 °C 12.9 °C 1004.3 hPa East 7.2 km/h 9.7 km/h 97 % 0.51 mm
09:22 13.4 °C 12.9 °C 1003.9 hPa East 8.4 km/h 9.7 km/h 97 % 0.76 mm
09:27 13.4 °C 12.9 °C 1003.9 hPa East 8 km/h 13 km/h 97 % 0.76 mm
09:32 13.4 °C 12.9 °C 1003.9 hPa ENE 5.6 km/h 7.4 km/h 97 % 0.76 mm
09:37 13.3 °C 12.9 °C 1003.9 hPa East 6.9 km/h 9.7 km/h 97 % 0.76 mm
09:42 13.3 °C 12.9 °C 1003.6 hPa ENE 7.1 km/h 9.3 km/h 97 % 0.51 mm
09:47 13.4 °C 12.9 °C 1003.6 hPa East 6.3 km/h 9.3 km/h 97 % 0.51 mm
09:52 13.4 °C 12.9 °C 1003.3 hPa ENE 6.8 km/h 9.3 km/h 97 % 0.51 mm
09:57 13.4 °C 12.9 °C 1003.6 hPa East 6 km/h 8 km/h 97 % 0.51 mm
10:02 13.4 °C 13 °C 1003.3 hPa East 7.4 km/h 11.1 km/h 97 % 0.51 mm
10:07 13.5 °C 13.1 °C 1003.3 hPa East 6.3 km/h 9.3 km/h 97 % 0.51 mm
10:13 13.5 °C 13.1 °C 1002.9 hPa East 8 km/h 9.7 km/h 97 % 0.51 mm
10:18 13.5 °C 13.1 °C 1002.9 hPa East 8.2 km/h 9.7 km/h 97 % 0.51 mm
10:23 13.5 °C 13.1 °C 1002.9 hPa East 7.2 km/h 11.1 km/h 97 % 0.25 mm
10:28 13.5 °C 13.1 °C 1002.9 hPa East 8.4 km/h 11.1 km/h 97 % 0 mm
10:33 13.5 °C 13.1 °C 1002.9 hPa East 7.7 km/h 9.7 km/h 97 % 0.25 mm
10:38 13.5 °C 13.1 °C 1003.3 hPa East 7.9 km/h 9.7 km/h 97 % 0.76 mm
10:43 13.5 °C 13.1 °C 1002.9 hPa East 6.3 km/h 8 km/h 97 % 0.76 mm
10:48 13.4 °C 13 °C 1003.3 hPa East 6.4 km/h 8 km/h 97 % 0.76 mm
10:53 13.5 °C 13.1 °C 1003.3 hPa East 6.3 km/h 8 km/h 97 % 0.76 mm
10:58 13.6 °C 13.2 °C 1003.3 hPa East 6.3 km/h 7.4 km/h 98 % 1.27 mm
11:03 13.7 °C 13.3 °C 1002.9 hPa East 6.8 km/h 9.7 km/h 98 % 1.52 mm
11:08 13.7 °C 13.3 °C 1003.3 hPa East 6.3 km/h 7.4 km/h 98 % 1.52 mm
11:13 13.7 °C 13.3 °C 1002.6 hPa ENE 7.2 km/h 8 km/h 98 % 1.52 mm
11:18 13.7 °C 13.3 °C 1002.6 hPa ENE 4.2 km/h 9.3 km/h 98 % 1.52 mm
11:23 13.7 °C 13.3 °C 1002.9 hPa East 5.5 km/h 9.3 km/h 97 % 1.52 mm
11:29 13.8 °C 13.4 °C 1002.6 hPa East 5.3 km/h 8 km/h 97 % 1.52 mm
11:34 13.8 °C 13.3 °C 1002.6 hPa East 4.3 km/h 7.4 km/h 97 % 1.27 mm
11:39 13.8 °C 13.4 °C 1002.6 hPa East 4 km/h 7.4 km/h 97 % 0.76 mm
11:44 13.9 °C 13.4 °C 1002.6 hPa East 3.2 km/h 5.6 km/h 97 % 1.02 mm
11:49 13.9 °C 13.6 °C 1002.6 hPa East 3.5 km/h 5.6 km/h 98 % 1.02 mm
11:54 13.9 °C 13.6 °C 1002.6 hPa East 3.4 km/h 5.6 km/h 98 % 1.02 mm
11:59 13.9 °C 13.6 °C 1002.6 hPa East 3.5 km/h 5.6 km/h 98 % 0.51 mm
12:04 14.1 °C 13.7 °C 1002.3 hPa East 3.9 km/h 5.6 km/h 98 % 0.25 mm
12:09 14.1 °C 13.8 °C 1002.3 hPa East 3.9 km/h 5.6 km/h 98 % 0.25 mm
12:14 14.1 °C 13.7 °C 1002.6 hPa East 3.4 km/h 5.6 km/h 98 % 0.25 mm
12:19 14 °C 13.7 °C 1002.3 hPa East 4.2 km/h 7.4 km/h 98 % 0.25 mm
12:24 13.9 °C 13.6 °C 1002.3 hPa East 3.9 km/h 5.6 km/h 98 % 0.51 mm
12:29 13.9 °C 13.6 °C 1002.3 hPa East 3.5 km/h 5.6 km/h 98 % 0.51 mm
12:34 13.8 °C 13.4 °C 1001.9 hPa East 4 km/h 5.6 km/h 97 % 0.51 mm
12:39 13.8 °C 13.3 °C 1001.9 hPa East 4.2 km/h 7.4 km/h 97 % 0.51 mm
12:44 13.8 °C 13.3 °C 1001.9 hPa ENE 5.1 km/h 7.4 km/h 97 % 0.25 mm
12:49 13.7 °C 13.3 °C 1001.9 hPa ENE 5.5 km/h 11.1 km/h 97 % 0.25 mm
12:54 13.7 °C 13.3 °C 1001.9 hPa ENE 4.5 km/h 5.6 km/h 97 % 0.25 mm
12:59 13.8 °C 13.3 °C 1001.9 hPa ENE 3.9 km/h 5.6 km/h 97 % 0.51 mm
13:04 13.8 °C 13.4 °C 1001.9 hPa ENE 4.5 km/h 5.6 km/h 97 % 0.51 mm
13:09 13.8 °C 13.3 °C 1001.6 hPa ENE 5.6 km/h 7.4 km/h 97 % 0.51 mm
13:14 13.7 °C 13.3 °C 1001.6 hPa ENE 4.8 km/h 5.6 km/h 97 % 0.51 mm
13:19 13.7 °C 13.3 °C 1001.6 hPa ENE 4.7 km/h 5.6 km/h 97 % 0.51 mm
13:24 13.7 °C 13.2 °C 1001.6 hPa ENE 4.2 km/h 5.6 km/h 97 % 0.25 mm
13:29 13.7 °C 13.2 °C 1001.6 hPa ENE 3.4 km/h 5.6 km/h 97 % 0.25 mm
13:35 13.6 °C 13.2 °C 1001.6 hPa ENE 6 km/h 9.3 km/h 97 % 0.25 mm
13:40 13.6 °C 13.2 °C 1001.6 hPa ENE 6.1 km/h 11.1 km/h 97 % 0.25 mm
13:45 13.6 °C 13.1 °C 1001.6 hPa ENE 6.6 km/h 11.1 km/h 97 % 0.25 mm
13:50 13.6 °C 13.1 °C 1001.6 hPa ENE 5.5 km/h 11.1 km/h 97 % 0.25 mm
13:55 13.6 °C 13.1 °C 1001.2 hPa ENE 6.4 km/h 13 km/h 97 % 0 mm
14:00 13.6 °C 13.3 °C 1001.6 hPa ENE 7.6 km/h 13 km/h 98 % 0 mm
14:05 13.6 °C 13.3 °C 1001.2 hPa East 7.2 km/h 13 km/h 98 % 0 mm
14:10 13.6 °C 13.1 °C 1001.2 hPa ENE 5.6 km/h 9.3 km/h 97 % 0 mm
14:15 13.6 °C 13.1 °C 1001.2 hPa ENE 5.1 km/h 6.4 km/h 97 % 0 mm
14:20 13.6 °C 13.3 °C 1001.2 hPa ENE 5.6 km/h 7.4 km/h 98 % 0 mm
14:25 13.7 °C 13.3 °C 1000.9 hPa ENE 6.3 km/h 7.4 km/h 98 % 0 mm
14:30 13.7 °C 13.3 °C 1000.9 hPa ENE 5.6 km/h 7.4 km/h 98 % 0 mm
14:35 13.7 °C 13.3 °C 1000.9 hPa ENE 6.9 km/h 11.3 km/h 98 % 0 mm
14:40 13.7 °C 13.4 °C 1000.9 hPa ENE 5.3 km/h 9.3 km/h 98 % 0 mm
14:45 13.7 °C 13.4 °C 1000.9 hPa ENE 5.5 km/h 9.3 km/h 98 % 0 mm
14:51 13.7 °C 13.3 °C 1000.9 hPa East 5.5 km/h 11.1 km/h 97 % 0.25 mm
14:56 13.8 °C 13.5 °C 1000.9 hPa ENE 4.8 km/h 8 km/h 98 % 0 mm
15:01 13.8 °C 13.5 °C 1000.9 hPa ENE 6.4 km/h 6.4 km/h 98 % 0.25 mm
15:06 13.8 °C 13.4 °C 1000.9 hPa ENE 4.8 km/h 11.3 km/h 97 % 0 mm
15:11 13.8 °C 13.3 °C 1000.6 hPa ENE 4.8 km/h 12.9 km/h 97 % 0 mm
15:16 13.8 °C 13.3 °C 1000.6 hPa ENE 4.8 km/h 8 km/h 97 % 0 mm
15:21 13.7 °C 13.3 °C 1000.6 hPa ENE 3.2 km/h 8 km/h 97 % 0 mm
15:26 13.8 °C 13.3 °C 1000.6 hPa ENE 3.2 km/h 8 km/h 97 % 0 mm
15:31 13.8 °C 13.3 °C 1000.6 hPa East 3.2 km/h 7.4 km/h 97 % 0.25 mm
15:35 13.8 °C 13.5 °C 1000.2 hPa East 4.7 km/h 9.7 km/h 98 % 0.25 mm
15:41 13.8 °C 13.5 °C 1000.2 hPa ENE 6.1 km/h 6.4 km/h 98 % 0.25 mm
15:46 13.9 °C 13.6 °C 999.9 hPa ENE 4.8 km/h 8 km/h 98 % 0 mm
15:51 13.9 °C 13.6 °C 1000.2 hPa ENE 4.8 km/h 9.7 km/h 98 % 0 mm
15:56 13.9 °C 13.6 °C 1000.2 hPa East 4.8 km/h 9.7 km/h 98 % 0 mm
16:01 13.9 °C 13.6 °C 1000.2 hPa ENE 4.2 km/h 5.6 km/h 98 % 0 mm
16:06 13.8 °C 13.4 °C 999.9 hPa ENE 4.5 km/h 7.4 km/h 97 % 0 mm
16:11 13.8 °C 13.3 °C 1000.2 hPa East 4.3 km/h 9.3 km/h 97 % 0 mm
16:16 13.8 °C 13.5 °C 999.9 hPa ENE 4.2 km/h 7.4 km/h 98 % 0 mm
16:21 13.8 °C 13.5 °C 1000.2 hPa ENE 3.5 km/h 5.6 km/h 98 % 0 mm
16:26 13.8 °C 13.5 °C 1000.2 hPa ENE 4.2 km/h 5.6 km/h 98 % 0 mm
16:31 13.7 °C 13.3 °C 1000.2 hPa ENE 5 km/h 11.1 km/h 97 % 0 mm
16:36 13.7 °C 13.3 °C 999.9 hPa ENE 4.5 km/h 7.4 km/h 98 % 0 mm
16:41 13.7 °C 13.3 °C 999.9 hPa ENE 4.3 km/h 7.4 km/h 98 % 0 mm
16:46 13.6 °C 13.3 °C 999.9 hPa ENE 5 km/h 7.4 km/h 98 % 0 mm
16:51 13.6 °C 13.2 °C 999.9 hPa East 4.8 km/h 8 km/h 98 % 0 mm
16:56 13.6 °C 13.2 °C 999.9 hPa ENE 4.3 km/h 5.6 km/h 98 % 0 mm
17:01 13.6 °C 13.1 °C 999.5 hPa East 6 km/h 9.7 km/h 97 % 0 mm
17:06 13.5 °C 13.1 °C 998.9 hPa ENE 7.6 km/h 13 km/h 97 % 0 mm
17:11 13.4 °C 13 °C 998.5 hPa ENE 7.7 km/h 14.8 km/h 97 % 0 mm
17:16 13.4 °C 13 °C 998.5 hPa ENE 7.4 km/h 16.7 km/h 97 % 0 mm
17:21 13.4 °C 13 °C 999.2 hPa East 4.8 km/h 5.6 km/h 97 % 0 mm
17:26 13.5 °C 13.2 °C 999.5 hPa East 5 km/h 8 km/h 98 % 0 mm
17:31 13.6 °C 13.3 °C 999.5 hPa East 5.5 km/h 8 km/h 98 % 0 mm
17:36 13.7 °C 13.3 °C 999.9 hPa East 5.3 km/h 7.4 km/h 98 % 0 mm
17:41 13.7 °C 13.4 °C 999.9 hPa East 4.5 km/h 9.3 km/h 98 % 0 mm
17:46 13.7 °C 13.4 °C 1000.2 hPa East 3.1 km/h 5.6 km/h 98 % 0 mm
17:51 13.8 °C 13.5 °C 999.9 hPa East 3.5 km/h 5.6 km/h 98 % 0 mm
17:56 13.9 °C 13.6 °C 999.9 hPa East 3.2 km/h 5.6 km/h 98 % 0 mm
18:01 13.9 °C 13.6 °C 1000.2 hPa East 3.2 km/h 5.6 km/h 98 % 0 mm
18:07 13.9 °C 13.6 °C 999.5 hPa ENE 3.2 km/h 7.4 km/h 98 % 0 mm
18:12 13.9 °C 13.6 °C 999.5 hPa ENE 3.1 km/h 13 km/h 98 % 0 mm
18:17 13.9 °C 13.6 °C 999.5 hPa ENE 5 km/h 7.4 km/h 98 % 0 mm
18:22 13.8 °C 13.5 °C 999.9 hPa ENE 3.4 km/h 6.4 km/h 98 % 0 mm
18:27 13.8 °C 13.4 °C 999.5 hPa ENE 4 km/h 5.6 km/h 98 % 0 mm
18:32 13.8 °C 13.4 °C 999.2 hPa ENE 4.3 km/h 6.4 km/h 98 % 0 mm
18:37 13.7 °C 13.4 °C 999.2 hPa ENE 7.1 km/h 11.1 km/h 98 % 0 mm
18:42 13.7 °C 13.3 °C 999.2 hPa East 4.7 km/h 7.4 km/h 98 % 0 mm
18:47 13.6 °C 13.3 °C 998.9 hPa ENE 7.9 km/h 13 km/h 98 % 0 mm
18:52 13.6 °C 13.2 °C 999.2 hPa ENE 4.8 km/h 6.4 km/h 98 % 0 mm
18:57 13.6 °C 13.2 °C 999.2 hPa ENE 5 km/h 7.4 km/h 98 % 0 mm
19:02 13.5 °C 13.2 °C 998.9 hPa NE 7.2 km/h 12.9 km/h 98 % 0 mm
19:07 13.5 °C 13.2 °C 999.2 hPa NE 7.7 km/h 14.8 km/h 98 % 0 mm
19:12 13.5 °C 13.2 °C 999.2 hPa ENE 4.3 km/h 14.8 km/h 98 % 0 mm
19:17 13.5 °C 13.2 °C 999.2 hPa ENE 7.4 km/h 11.3 km/h 98 % 0 mm
19:22 13.5 °C 13.2 °C 999.5 hPa ENE 3.9 km/h 7.4 km/h 98 % 0 mm
19:27 13.5 °C 13.2 °C 999.9 hPa East 5.6 km/h 8 km/h 98 % 0 mm
19:32 13.5 °C 13.2 °C 999.5 hPa ENE 5 km/h 6.4 km/h 98 % 0 mm
19:37 13.4 °C 13.1 °C 999.5 hPa ENE 4.7 km/h 9.3 km/h 98 % 0 mm
19:43 13.4 °C 13.1 °C 999.2 hPa ENE 5.8 km/h 11.1 km/h 98 % 0 mm
19:48 13.4 °C 13.1 °C 999.2 hPa ENE 5 km/h 7.4 km/h 98 % 0 mm
19:53 13.4 °C 13.1 °C 999.5 hPa East 4 km/h 7.4 km/h 98 % 0 mm
19:58 13.4 °C 13.1 °C 999.5 hPa East 5.5 km/h 9.3 km/h 98 % 0 mm
20:03 13.4 °C 13.1 °C 999.2 hPa East 6 km/h 7.4 km/h 98 % 0 mm
20:08 13.4 °C 13.1 °C 999.5 hPa ENE 4.7 km/h 13 km/h 98 % 0 mm
20:13 13.4 °C 13.1 °C 999.5 hPa ENE 5 km/h 7.4 km/h 98 % 0 mm
20:18 13.4 °C 13.1 °C 999.5 hPa ENE 4 km/h 6.4 km/h 98 % 0 mm
20:23 13.4 °C 13.1 °C 999.2 hPa East 5.1 km/h 11.1 km/h 98 % 0 mm
20:28 13.3 °C 13 °C 998.9 hPa ENE 5.5 km/h 8 km/h 98 % 0 mm
20:33 13.3 °C 13 °C 998.9 hPa ENE 6.1 km/h 7.4 km/h 98 % 0 mm
20:38 13.3 °C 13 °C 998.5 hPa East 5.5 km/h 9.7 km/h 98 % 0 mm
20:43 13.3 °C 13 °C 998.5 hPa ENE 6.3 km/h 7.4 km/h 98 % 0 mm
20:48 13.3 °C 12.9 °C 998.5 hPa ENE 6.1 km/h 14.8 km/h 98 % 0 mm
20:53 13.3 °C 13 °C 998.5 hPa ENE 6.1 km/h 11.3 km/h 98 % 0 mm
20:59 13.3 °C 12.9 °C 998.2 hPa ENE 7.1 km/h 9.3 km/h 98 % 0.25 mm
21:04 13.3 °C 12.9 °C 998.2 hPa ENE 7.4 km/h 7.4 km/h 98 % 0.25 mm
21:09 13.3 °C 12.9 °C 998.5 hPa ENE 7.6 km/h 14.8 km/h 98 % 0.25 mm
21:14 13.3 °C 12.9 °C 998.5 hPa ENE 9.7 km/h 20.4 km/h 98 % 0.25 mm
21:19 13.3 °C 13 °C 998.2 hPa ENE 8.5 km/h 20.4 km/h 98 % 0.25 mm
21:24 13.3 °C 13 °C 998.5 hPa ENE 6.6 km/h 13 km/h 98 % 0.25 mm
21:29 13.4 °C 13.1 °C 998.5 hPa East 10.5 km/h 14.8 km/h 98 % 0.25 mm
21:34 13.4 °C 13.1 °C 998.9 hPa East 7.1 km/h 9.7 km/h 98 % 0.51 mm
21:39 13.4 °C 13.1 °C 998.9 hPa East 7.1 km/h 9.7 km/h 98 % 0.51 mm
21:44 13.4 °C 13.1 °C 998.5 hPa East 5.3 km/h 7.4 km/h 98 % 0.51 mm
21:49 13.4 °C 13.1 °C 998.5 hPa ENE 5.3 km/h 7.4 km/h 98 % 0.51 mm
21:54 13.4 °C 13.1 °C 998.5 hPa ENE 4.2 km/h 5.6 km/h 98 % 0.51 mm
21:59 13.3 °C 13 °C 998.5 hPa East 3.1 km/h 7.4 km/h 98 % 0.25 mm
22:04 13.4 °C 13.1 °C 998.5 hPa ENE 5.5 km/h 6.4 km/h 98 % 0.25 mm
22:09 13.3 °C 13 °C 998.5 hPa ENE 4.2 km/h 9.3 km/h 98 % 0.25 mm
22:14 13.3 °C 13 °C 998.2 hPa ENE 4.2 km/h 5.6 km/h 98 % 0.51 mm
22:19 13.3 °C 13 °C 998.2 hPa ENE 4.5 km/h 6.4 km/h 98 % 0.51 mm
22:24 13.3 °C 13 °C 998.2 hPa ENE 5.5 km/h 6.4 km/h 98 % 0.51 mm
22:29 13.3 °C 13 °C 998.2 hPa ENE 4.3 km/h 5.6 km/h 98 % 0.51 mm
22:34 13.3 °C 13 °C 998.2 hPa East 6.1 km/h 8 km/h 98 % 0.76 mm
22:39 13.3 °C 13 °C 998.2 hPa East 8.9 km/h 11.1 km/h 98 % 1.02 mm
22:44 13.3 °C 12.9 °C 997.9 hPa ENE 9 km/h 14.8 km/h 98 % 1.78 mm
22:49 13.3 °C 12.9 °C 997.9 hPa East 5.1 km/h 7.4 km/h 98 % 2.03 mm
22:54 13.3 °C 12.9 °C 997.5 hPa East 9.5 km/h 13 km/h 98 % 2.29 mm
23:00 13.2 °C 12.9 °C 997.5 hPa East 6.1 km/h 11.3 km/h 98 % 2.29 mm
23:05 13.2 °C 12.9 °C 997.9 hPa East 5.5 km/h 7.4 km/h 98 % 2.54 mm
23:10 13.2 °C 12.9 °C 997.9 hPa East 4.7 km/h 5.6 km/h 98 % 2.54 mm
23:15 13.2 °C 12.9 °C 997.5 hPa ENE 8.5 km/h 13 km/h 98 % 2.29 mm
23:20 13.2 °C 12.8 °C 997.9 hPa ENE 4.3 km/h 7.4 km/h 98 % 2.29 mm
23:25 13.2 °C 12.8 °C 997.9 hPa East 7.2 km/h 9.3 km/h 98 % 2.29 mm
23:30 13.2 °C 12.8 °C 997.9 hPa East 6.3 km/h 8 km/h 98 % 2.29 mm
23:35 13.2 °C 12.9 °C 997.9 hPa East 3.5 km/h 7.4 km/h 98 % 1.78 mm
23:40 13.2 °C 12.9 °C 998.2 hPa East 6.1 km/h 8 km/h 98 % 1.52 mm
23:45 13.2 °C 12.9 °C 998.2 hPa East 4.5 km/h 7.4 km/h 98 % 2.03 mm
23:50 13.2 °C 12.9 °C 997.9 hPa ENE 4 km/h 6.4 km/h 98 % 3.05 mm
23:55 13.2 °C 12.9 °C 998.2 hPa East 2.4 km/h 5.6 km/h 98 % 3.56 mm
Crab Meadow Weather
Compliments of Weather Underground - 3 mb

Script developed by  Jim McMurry - jmcmurry@mwt.net Adapted for the template by  Wim van der Kuil - Leuven-Template.eu

Astronomy: One day on Jupiter is only 9 hours and 55 minutes.